SWR297 LSZH-LFBD

Flight info

Callsign SWR297
Flight time 1h 4m
Altitude 41000
Route VEBIT T50 ROTOS Z669 MILPA N869 NINTU DCT TIS DCT ATSUP DCT MAKOX DCT POKET DCT VELIN
Aircraft A359/H-SDE2E3GHIJ3J4J5LM1ORWXY/LB1D1

Departure

Time 2026-05-04 11:27
Airport Zürich Airport (LSZH)

Arrival

Time 2026-05-04 12:32
Airport Bordeaux–Mérignac Airport (LFBD)
Time Latitude Longitude Altitude Speed Heading
2026-05-04 11:26 47.39848 8.36778 15945 ft 322 kts 238°
2026-05-04 11:27 47.31909 8.14786 22391 ft 365 kts 240°
2026-05-04 11:28 47.30738 8.11485 23301 ft 370 kts 240°
2026-05-04 11:28 47.29523 8.08062 24123 ft 374 kts 240°
2026-05-04 11:28 47.28324 8.04694 24924 ft 377 kts 240°
2026-05-04 11:28 47.27110 8.01243 25723 ft 381 kts 242°
2026-05-04 11:29 47.25998 7.97670 26515 ft 385 kts 244°
2026-05-04 11:29 47.24949 7.94027 27292 ft 388 kts 245°
2026-05-04 11:29 47.23924 7.90331 28076 ft 392 kts 245°
2026-05-04 11:29 47.22900 7.86596 28838 ft 395 kts 245°
2026-05-04 11:31 47.13144 7.61544 32930 ft 419 kts 231°
2026-05-04 11:33 47.00180 7.37778 36687 ft 426 kts 231°
2026-05-04 11:33 46.98335 7.34408 37285 ft 424 kts 231°
2026-05-04 11:33 46.96480 7.31030 37767 ft 424 kts 231°
2026-05-04 11:34 46.94628 7.27663 38210 ft 425 kts 231°
2026-05-04 11:34 46.92771 7.24283 38626 ft 427 kts 231°
2026-05-04 11:34 46.90913 7.20901 38980 ft 427 kts 231°
2026-05-04 11:34 46.89050 7.17509 39348 ft 427 kts 231°
2026-05-04 11:35 46.87183 7.14113 39705 ft 428 kts 231°
2026-05-04 11:35 46.85318 7.10725 40008 ft 429 kts 231°
2026-05-04 11:35 46.83444 7.07325 40337 ft 430 kts 231°
2026-05-04 11:35 46.81569 7.03928 40663 ft 430 kts 231°
2026-05-04 11:36 46.79685 7.00518 40942 ft 432 kts 231°
2026-05-04 11:36 46.77819 6.97136 41020 ft 438 kts 231°
2026-05-04 11:36 46.73912 6.90085 41031 ft 454 kts 231°
2026-05-04 11:37 46.69916 6.82894 41019 ft 456 kts 231°
2026-05-04 11:37 46.65986 6.75634 41027 ft 456 kts 236°
2026-05-04 11:38 46.62657 6.67778 41026 ft 456 kts 239°
2026-05-04 11:38 46.59462 6.59821 41031 ft 456 kts 239°
2026-05-04 11:39 46.56298 6.51899 41031 ft 456 kts 239°
2026-05-04 11:41 46.45620 6.25492 41042 ft 454 kts 239°
2026-05-04 11:41 46.42405 6.17600 41035 ft 454 kts 239°
2026-05-04 11:42 46.39186 6.09718 41065 ft 454 kts 239°
2026-05-04 11:42 46.35963 6.01853 41079 ft 453 kts 239°
2026-05-04 11:43 46.32768 5.94075 41071 ft 452 kts 239°
2026-05-04 11:43 46.29546 5.86264 41060 ft 452 kts 238°
2026-05-04 11:44 46.26052 5.78702 41059 ft 452 kts 234°
2026-05-04 11:44 46.22422 5.71299 41039 ft 452 kts 234°
2026-05-04 11:45 46.18820 5.63873 41041 ft 451 kts 235°
2026-05-04 11:45 46.15578 5.56190 41041 ft 451 kts 244°
2026-05-04 11:46 46.13736 5.47524 41040 ft 454 kts 256°
2026-05-04 11:46 46.12567 5.38544 41032 ft 456 kts 258°
2026-05-04 11:47 46.11486 5.29547 41030 ft 456 kts 258°
2026-05-04 11:47 46.10379 5.20543 41032 ft 456 kts 257°
2026-05-04 11:48 46.09252 5.11619 41032 ft 456 kts 257°
2026-05-04 11:48 46.08100 5.02622 41020 ft 457 kts 257°
2026-05-04 11:49 46.06938 4.93612 41037 ft 457 kts 257°
2026-05-04 11:49 46.05772 4.84611 41033 ft 457 kts 257°
2026-05-04 11:50 46.04599 4.75618 41031 ft 456 kts 257°
2026-05-04 11:50 46.03421 4.66642 41020 ft 456 kts 257°
2026-05-04 11:51 46.02243 4.57722 41009 ft 456 kts 257°
2026-05-04 11:51 46.01051 4.48754 41014 ft 457 kts 257°
2026-05-04 11:52 45.99852 4.39792 41003 ft 456 kts 257°
2026-05-04 11:52 45.98644 4.30817 41005 ft 457 kts 257°
2026-05-04 11:53 45.97435 4.21895 41000 ft 457 kts 257°
2026-05-04 11:53 45.96212 4.12922 40995 ft 457 kts 256°
2026-05-04 11:55 45.91252 3.77082 40986 ft 458 kts 256°
2026-05-04 11:56 45.89992 3.68116 40982 ft 458 kts 256°
2026-05-04 11:56 45.88725 3.59148 40978 ft 458 kts 256°
2026-05-04 11:57 45.87040 3.50356 40984 ft 456 kts 250°
2026-05-04 11:57 45.85083 3.41691 40989 ft 456 kts 250°
2026-05-04 11:58 45.83090 3.33101 40991 ft 456 kts 249°
2026-05-04 11:58 45.81082 3.24460 40992 ft 456 kts 250°
2026-05-04 11:59 45.79074 3.15816 40992 ft 456 kts 249°
2026-05-04 11:59 45.77064 3.07186 40993 ft 458 kts 250°
2026-05-04 12:00 45.75039 2.98524 40990 ft 459 kts 249°
2026-05-04 12:00 45.73017 2.89855 40983 ft 458 kts 250°
2026-05-04 12:01 45.71034 2.81252 40983 ft 458 kts 250°
2026-05-04 12:02 45.63978 2.50936 40970 ft 460 kts 250°
2026-05-04 12:03 45.61955 2.42332 40961 ft 460 kts 250°
2026-05-04 12:03 45.59912 2.33673 40984 ft 460 kts 250°
2026-05-04 12:04 45.57862 2.25020 40965 ft 459 kts 249°
2026-05-04 12:04 45.55810 2.16396 40952 ft 459 kts 249°
2026-05-04 12:05 45.53756 2.07790 40959 ft 457 kts 249°
2026-05-04 12:05 45.51699 1.99211 40958 ft 457 kts 249°
2026-05-04 12:06 45.49649 1.90692 40961 ft 457 kts 249°
2026-05-04 12:06 45.47589 1.82162 40646 ft 447 kts 249°
2026-05-04 12:07 45.46590 1.78026 40331 ft 438 kts 249°
2026-05-04 12:07 45.45590 1.73906 39597 ft 440 kts 248°
2026-05-04 12:07 45.44585 1.69775 38931 ft 441 kts 248°
2026-05-04 12:07 45.43579 1.65650 38190 ft 441 kts 248°
2026-05-04 12:08 45.42573 1.61533 37477 ft 438 kts 248°
2026-05-04 12:08 45.41585 1.57491 36809 ft 435 kts 248°
2026-05-04 12:08 45.40592 1.53434 36135 ft 433 kts 248°
2026-05-04 12:08 45.39600 1.49391 35418 ft 433 kts 247°
2026-05-04 12:09 45.38604 1.45341 34662 ft 433 kts 247°
2026-05-04 12:09 45.37604 1.41284 33835 ft 435 kts 247°
2026-05-04 12:09 45.36601 1.37224 32906 ft 436 kts 247°
2026-05-04 12:09 45.35596 1.33158 32019 ft 436 kts 247°
2026-05-04 12:10 45.34593 1.29104 31329 ft 432 kts 247°
2026-05-04 12:10 45.33782 1.25835 30864 ft 427 kts 247°
2026-05-04 12:10 45.32620 1.21987 30282 ft 420 kts 242°
2026-05-04 12:10 45.31372 1.18263 29667 ft 415 kts 241°
2026-05-04 12:11 45.30109 1.14610 29058 ft 410 kts 240°
2026-05-04 12:11 45.28842 1.11005 28438 ft 405 kts 240°
2026-05-04 12:11 45.27581 1.07439 27843 ft 400 kts 240°
2026-05-04 12:11 45.26341 1.03935 27245 ft 395 kts 240°
2026-05-04 12:12 45.25114 1.00464 26658 ft 392 kts 240°
2026-05-04 12:12 45.23898 0.97021 26061 ft 388 kts 240°
2026-05-04 12:12 45.22708 0.93649 25445 ft 385 kts 240°
2026-05-04 12:12 45.21512 0.90257 24858 ft 382 kts 240°
2026-05-04 12:13 45.20318 0.86878 24256 ft 380 kts 240°
2026-05-04 12:14 45.12265 0.64184 19953 ft 356 kts 240°
2026-05-04 12:15 45.11154 0.61066 19356 ft 353 kts 240°
2026-05-04 12:15 45.10172 0.57893 18781 ft 352 kts 245°
2026-05-04 12:15 45.09278 0.54657 18168 ft 351 kts 246°
2026-05-04 12:15 45.08400 0.51496 17527 ft 348 kts 245°
2026-05-04 12:16 45.07506 0.48328 16927 ft 344 kts 245°
2026-05-04 12:16 45.06616 0.45209 16330 ft 340 kts 245°
2026-05-04 12:16 45.05728 0.42124 15765 ft 337 kts 245°
2026-05-04 12:16 45.04846 0.39066 15169 ft 334 kts 245°
2026-05-04 12:17 45.03970 0.36042 14586 ft 331 kts 245°
2026-05-04 12:17 45.03096 0.33034 14014 ft 329 kts 245°
2026-05-04 12:17 45.02232 0.30063 13407 ft 326 kts 245°
2026-05-04 12:17 45.01375 0.27116 12815 ft 322 kts 245°
2026-05-04 12:18 45.00527 0.24207 12263 ft 317 kts 245°
2026-05-04 12:18 44.99703 0.21385 11700 ft 314 kts 245°
2026-05-04 12:18 44.98874 0.18546 11152 ft 311 kts 245°
2026-05-04 12:18 44.98055 0.15744 10732 ft 303 kts 245°
2026-05-04 12:19 44.97302 0.13047 10607 ft 287 kts 248°
2026-05-04 12:19 44.96643 0.10462 10475 ft 272 kts 248°
2026-05-04 12:19 44.96016 0.07992 10293 ft 267 kts 248°
2026-05-04 12:19 44.95369 0.05485 10015 ft 274 kts 248°
2026-05-04 12:20 44.94714 0.02958 9701 ft 272 kts 248°
2026-05-04 12:20 44.94060 0.00443 9394 ft 273 kts 248°
2026-05-04 12:20 44.93404 -0.02066 9105 ft 273 kts 248°
2026-05-04 12:20 44.92746 -0.04581 8779 ft 272 kts 248°
2026-05-04 12:21 44.92094 -0.07074 8424 ft 270 kts 248°
2026-05-04 12:21 44.91451 -0.09526 8069 ft 267 kts 248°
2026-05-04 12:21 44.90809 -0.11978 7687 ft 266 kts 248°
2026-05-04 12:21 44.90165 -0.14427 7310 ft 265 kts 248°
2026-05-04 12:22 44.89522 -0.16853 6949 ft 263 kts 248°
2026-05-04 12:22 44.88640 -0.19091 6593 ft 261 kts 231°
2026-05-04 12:22 44.87314 -0.20818 6234 ft 260 kts 218°
2026-05-04 12:22 44.85864 -0.22354 5943 ft 261 kts 217°
2026-05-04 12:23 44.84409 -0.23872 5569 ft 259 kts 217°
2026-05-04 12:23 44.82974 -0.25375 5303 ft 251 kts 218°
2026-05-04 12:23 44.81614 -0.26807 5162 ft 237 kts 218°
2026-05-04 12:23 44.80344 -0.28147 5026 ft 225 kts 218°
2026-05-04 12:24 44.79094 -0.29468 4907 ft 223 kts 218°
2026-05-04 12:24 44.77853 -0.30782 4725 ft 223 kts 218°
2026-05-04 12:24 44.76611 -0.32098 4491 ft 223 kts 218°
2026-05-04 12:24 44.75472 -0.33571 4254 ft 222 kts 231°
2026-05-04 12:25 44.74836 -0.35487 4065 ft 217 kts 264°
2026-05-04 12:25 44.75178 -0.37442 4010 ft 205 kts 295°
2026-05-04 12:25 44.75801 -0.39184 3924 ft 194 kts 291°
2026-05-04 12:25 44.76283 -0.40889 3839 ft 181 kts 285°
2026-05-04 12:26 44.76645 -0.42529 3775 ft 170 kts 282°
2026-05-04 12:26 44.76977 -0.44111 3707 ft 164 kts 283°
2026-05-04 12:26 44.77289 -0.45566 3682 ft 148 kts 283°
2026-05-04 12:26 44.77583 -0.46924 3575 ft 141 kts 284°
2026-05-04 12:27 44.77865 -0.48235 3370 ft 139 kts 283°
2026-05-04 12:27 44.78144 -0.49533 3177 ft 138 kts 284°
2026-05-04 12:27 44.78416 -0.50795 2982 ft 135 kts 283°
2026-05-04 12:27 44.78688 -0.52063 2808 ft 135 kts 283°
2026-05-04 12:28 44.78959 -0.53325 2613 ft 134 kts 283°
2026-05-04 12:28 44.79230 -0.54588 2440 ft 135 kts 283°
2026-05-04 12:28 44.79503 -0.55856 2256 ft 135 kts 283°
2026-05-04 12:28 44.79770 -0.57106 2080 ft 130 kts 284°
2026-05-04 12:29 44.80023 -0.58278 1901 ft 124 kts 284°
2026-05-04 12:29 44.80270 -0.59432 1747 ft 122 kts 284°
2026-05-04 12:29 44.80515 -0.60574 1578 ft 122 kts 284°
2026-05-04 12:29 44.80762 -0.61720 1426 ft 122 kts 283°
2026-05-04 12:30 44.81003 -0.62850 1243 ft 119 kts 282°
2026-05-04 12:30 44.81242 -0.63958 1094 ft 119 kts 283°
2026-05-04 12:30 44.81480 -0.65074 933 ft 120 kts 285°
2026-05-04 12:30 44.81715 -0.66205 761 ft 120 kts 284°
2026-05-04 12:31 44.81953 -0.67327 587 ft 119 kts 288°
2026-05-04 12:31 44.82202 -0.68464 460 ft 123 kts 290°
2026-05-04 12:31 44.82447 -0.69609 289 ft 124 kts 290°
2026-05-04 12:31 44.82700 -0.70767 170 ft 123 kts 291°
2026-05-04 12:32 44.82890 -0.71659 173 ft 64 kts 286°
2026-05-04 12:32 44.83000 -0.72132 171 ft 11 kts 319°
2026-05-04 12:32 44.83056 -0.72129 170 ft 9 kts 17°
2026-05-04 12:33 44.83125 -0.72100 171 ft 12 kts 17°
2026-05-04 12:33 44.83163 -0.72047 172 ft 8 kts 70°
2026-05-04 12:33 44.83154 -0.71923 171 ft 18 kts 107°
2026-05-04 12:33 44.83113 -0.71739 172 ft 22 kts 108°
2026-05-04 12:34 44.83064 -0.71515 169 ft 27 kts 107°
2026-05-04 12:34 44.83007 -0.71245 167 ft 31 kts 106°
2026-05-04 12:34 44.82961 -0.71039 166 ft 12 kts 108°
2026-05-04 12:34 44.82966 -0.70946 170 ft 9 kts 56°
2026-05-04 12:35 44.83007 -0.70880 171 ft 20 kts 45°
2026-05-04 12:35 44.83119 -0.70713 171 ft 25 kts 48°
2026-05-04 12:35 44.83246 -0.70542 171 ft 26 kts 45°
2026-05-04 12:35 44.83380 -0.70351 171 ft 29 kts 45°
2026-05-04 12:36 44.83526 -0.70142 171 ft 28 kts 45°
2026-05-04 12:36 44.83613 -0.70021 171 ft 14 kts 36°
2026-05-04 12:36 44.83713 -0.70036 168 ft 18 kts 336°
2026-05-04 12:36 44.83841 -0.70117 172 ft 21 kts 336°
2026-05-04 12:37 44.83979 -0.70202 174 ft 23 kts 336°
2026-05-04 12:37 44.84075 -0.70261 174 ft 13 kts 336°
2026-05-04 12:37 44.84139 -0.70325 173 ft 5 kts 283°
2026-05-04 12:37 44.84132 -0.70395 172 ft 9 kts 253°
2026-05-04 12:38 44.84105 -0.70493 172 ft 13 kts 249°
2026-05-04 12:38 44.84064 -0.70634 173 ft 18 kts 246°
2026-05-04 12:38 44.84014 -0.70799 173 ft 6 kts 247°
2026-05-04 12:38 44.84009 -0.70816 173 ft 8 kts 247°
2026-05-04 12:39 44.83996 -0.70894 173 ft 3 kts 289°
2026-05-04 12:39 44.84027 -0.70941 172 ft 10 kts 320°
2026-05-04 12:39 44.84085 -0.71004 172 ft 3 kts 322°
2026-05-04 12:39 44.84114 -0.71036 172 ft 8 kts 322°
2026-05-04 12:40 44.84159 -0.71085 173 ft 2 kts 323°
2026-05-04 12:40 44.84167 -0.71093 173 ft 0 kts 323°